[Iaude] MPEC C53: 2024 BT6 [a=1.60,e=0.88,i=40.8,H=21.1]

mpec at cfa.harvard.edu mpec at cfa.harvard.edu
Mon Feb 5 09:28:36 EST 2024


M.P.E.C. 2024-C53                              Issued 2024 February 5, 14:26 UT

     The Minor Planet Electronic Circulars contain information on unusual
         minor planets, routine data on comets and natural satellites,
         and occasional editorial announcements.  They are published
    on behalf of Division F of the International Astronomical Union by the
          Minor Planet Center, Smithsonian Astrophysical Observatory,
                          Cambridge, MA 02138, U.S.A.
			  
             Prepared using the Tamkin Foundation Computer Network

                              MPC at CFA.HARVARD.EDU
            URL https://www.minorplanetcenter.net/    ISSN 1523-6714

                                    2024 BT6                                    


Observations:
     K24B06T*1C2024 01 30.30511308 40 37.186+14 19 28.02         21.06GVEC053G96
     K24B06T 1C2024 01 30.31031308 40 35.749+14 19 43.86         20.88GVEC053G96
     K24B06T 1C2024 01 30.31550308 40 34.295+14 19 58.87               VEC053G96
     K24B06T 1C2024 01 30.32070408 40 32.902+14 20 13.52         20.60GVEC053G96
     K24B06T 1C2024 01 30.39233508 40 13.343+14 23 45.78         20.92GVEC053G96
     K24B06T 1C2024 01 30.39309708 40 13.184+14 23 47.18         20.97GVEC053G96
     K24B06T 1C2024 01 30.39385908 40 12.972+14 23 49.67         21.11GVEC053G96
     K24B06T 1C2024 01 30.39462108 40 12.752+14 23 51.43         20.56GVEC053G96
     K24B06T KC2024 01 30.99963408 37 33.30 +14 53 04.4          20.9 GVEC053L01
     K24B06T KC2024 01 31.00222608 37 32.64 +14 53 11.0          20.7 GVEC053L01
     K24B06T KC2024 01 31.00481608 37 31.98 +14 53 18.9          20.9 GVEC053L01
     K24B06T KC2024 01 31.00795208 37 31.12 +14 53 27.5          20.6 GVEC053L01
     K24B06T KC2024 02 01.27125308 32 09.54 +15 51 44.8          20.8 GVEC053H21
     K24B06T KC2024 02 01.27984108 32 07.37 +15 52 07.9          21.1 GVEC053H21
     K24B06T KC2024 02 01.28585308 32 05.84 +15 52 24.1          20.7 GVEC053H21
     K24B06T  C2024 02 01.34423508 31 52.113+15 55 04.66         21.29wXEC053F52
     K24B06T  C2024 02 01.35588108 31 49.155+15 55 35.87         21.24wXEC053F52
     K24B06T  C2024 02 01.36758208 31 46.188+15 56 07.25         21.53wXEC053F52
     K24B06T KB2024 02 01.96573 08 29 19.71 +16 22 12.4          21.2 GVEC053204
     K24B06T KB2024 02 01.99693 08 29 12.00 +16 23 32.2                VEC053204
     K24B06T KC2024 02 05.19081708 17 12.444+18 30 03.92         21.54GVEC053V06
     K24B06T KC2024 02 05.19478708 17 11.591+18 30 12.64         21.60GVEC053V06
     K24B06T KC2024 02 05.19875708 17 10.748+18 30 21.31         21.55GVEC053V06
     K24B06T KC2024 02 05.20272908 17 09.888+18 30 29.99         21.49GVEC053V06

Observer details:
204 Schiaparelli Observatory.  Observer L. Buzzi.  0.84-m f/3.5 reflector +
    CMO.
F52 Pan-STARRS 2, Haleakala.  Observers J. Herman, T. Lowe, P. Minguez, A.
    Schultz, I. Smith.  Measurers K. Chambers, T. de Boer, J. Fairlamb, H.
    Gao, M. Huber, C.-C. Lin, E. Magnier, Y. Ramanjooloo, R. Wainscoat, R.
    Weryk.  1.8-m Ritchey-Chretien + CCD.
G96 Mt. Lemmon Survey.  Observer D. Rankin.  Measurers T. Beuden, V. F.
    Carvajal, D. Fay, J. B. Fazekas, D. C. Fuls, A. R. Gibbs, A. D. Grauer, H.
    Groeller, J. K. Hogan, R. A. Kowalski, S. M. Larson, G. J. Leonard, D.
    Rankin, R. L. Seaman, F. C. Shelly, K. W. Wierzchos.  1.5-m reflector +
    10K CCD.
H21 Astronomical Research Observatory, Westfield.  Observer R. Holmes.
    Measurers T. Linder, R. Holmes, L. Horn.  0.76-m f/3.0 astrograph + CCD.
L01 Visnjan Observatory, Tican.  Observer K. Korlevic.  1.0-m f/2.9 reflector
    + CCD.
V06 Catalina Sky Survey-Kuiper.  Observer H. Groeller.  Measurers T. Beuden,
    V. F. Carvajal, D. Fay, J. B. Fazekas, D. C. Fuls, A. R. Gibbs, A. D.
    Grauer, H. Groeller, J. K. Hogan, R. A. Kowalski, S. M. Larson, G. J.
    Leonard, D. Rankin, R. L. Seaman, F. C. Shelly, K. W. Wierzchos.  1.55-m
    reflector + 1K CCD.

Orbital elements:
2024 BT6                                                 Earth MOID = 0.1801 AU
Epoch 2023 Sept. 13.0 TT = JDT 2460200.5                Bell                    
M 329.60656              (2000.0)            P               Q                  
n   0.48637705     Peri.  207.99839     +0.84658956     +0.19788418             
a   1.6013539      Node   130.89003     -0.27697092     +0.95651330             
e   0.8755121      Incl.   40.81286     -0.45450328     -0.21429921             
P   2.03           H   21.17          G   0.15           U   9                  
Residuals in seconds of arc
240130 G96  0.0   0.5-    240130 L01  0.2-  0.6+    240201 F52  0.0   0.1+
240130 G96  0.2-  0.0     240131 L01  0.2+  0.2-    240201 F52  0.1-  0.2+
240130 G96  0.7-  0.3-    240131 L01  0.6+  0.3+    240201 204  0.5+  0.4+
240130 G96  0.2-  1.0-    240131 L01  0.2+  0.0     240201 204  0.0   0.3-
240130 G96  0.4-  0.4+    240201 H21  0.0   0.2-    240205 V06  0.0   0.0
240130 G96  0.3+  0.4-    240201 H21  0.0   0.1-    240205 V06  0.0   0.0
240130 G96  0.3+  0.2-    240201 H21  0.1-  0.1+    240205 V06  0.1+  0.0
240130 G96  0.1+  0.6-    240201 F52  0.1+  0.1+    240205 V06  0.0   0.0

Ephemeris:
2024 BT6                 a,e,i = 1.60, 0.88, 41                  q = 0.1993
Date    TT    R. A. (2000) Decl.     Delta      r    Elong.  Phase     V
2024 01 06    11 03 57.7 -13 58 04   0.4330  1.2074   110.9    49.6    21.6
...
2024 01 21    09 29 02.2 +04 57 00   0.4653  1.4202   155.3    16.8    21.2
...
2024 01 29    08 46 35.5 +13 13 10   0.5399  1.5233   174.9     3.3    21.1
...
2024 02 04    08 21 29.1 +17 45 27   0.6179  1.5966   169.0     6.7    21.6
2024 02 05    08 17 52.4 +18 23 08   0.6324  1.6085   167.1     7.9    21.8
2024 02 06    08 14 25.3 +18 58 50   0.6473  1.6203   165.2     8.9    21.9
...
2024 02 12    07 56 51.8 +21 56 08   0.7442  1.6893   154.5    14.6    22.5
...
2024 02 20    07 40 49.6 +24 36 20   0.8892  1.7769   142.2    19.9    23.2
...
2024 03 06    07 27 08.9 +27 18 34   1.1934  1.9285   123.6    25.4    24.1

M. P. C. Staff               (C) Copyright 2024 MPC           M.P.E.C. 2024-C53





More information about the Iaude mailing list